Temperature
13 13 13 13 12 11 10 9 9 10 10 10 11 11 12 13 13 14 14 14 14 14 13 13 12 12 12 11 11 11 11 11 11 11 11 11 12 12 12 12 12 12 12 12
13 14 13 13 12 12 12 10 10 11 11 11 13 13 13 13 14 14 14 14 14 14 14 13 13 12 12 12 11 11 11 11 11 11 11 11 11 11 11 11 11 11 12 12
12 13 12 12 12 12 12 12 11 11 11 12 12 13 13 14 14 14 14 14 14 14 14 14 13 13 12 12 12 11 11 11 11 11 11 11 10 11 11 11 11 11 11 11
11 12 13 14 13 12 12 12 11 11 12 13 13 14 14 14 14 14 14 14 14 14 14 14 14 13 13 12 12 12 11 11 11 11 10 10 10 10 10 10 10 11 11 11
10 12 12 13 13 12 12 13 12 12 13 14 14 13 14 14 14 14 14 14 14 14 14 14 14 14 13 13 12 12 12 11 11 11 10 10 10 10 10 10 10 10 10 11
11 14 14 15 14 14 13 13 14 14 14 14 13 11 12 14 14 14 14 14 14 14 14 14 14 14 14 13 13 12 12 11 11 11 10 10 10 10 10 10 10 10 10 10
11 12 13 14 14 15 13 13 15 15 15 14 13 13 15 15 14 14 14 14 14 14 14 14 14 14 14 13 13 12 12 11 11 11 10 10 10 10 10 9 9 9 9 9
10 12 13 14 13 13 13 16 16 16 16 16 15 15 15 15 14 14 14 14 14 14 14 14 14 14 14 13 13 13 12 12 11 11 10 10 10 10 10 9 9 9 9 9
11 13 15 15 16 17 17 17 17 17 16 16 15 15 15 15 15 15 14 14 14 14 14 14 14 14 14 13 13 13 12 12 11 11 10 10 10 10 10 9 9 9 9 9
10 11 15 16 17 17 17 18 18 17 17 16 16 15 15 15 15 15 15 14 14 14 14 14 14 14 14 13 13 13 12 12 11 11 10 10 10 10 9 9 9 9 8 9
12 12 14 16 17 17 17 17 17 17 16 16 16 16 15 15 15 15 15 14 14 14 14 14 14 14 14 13 13 13 12 12 11 11 10 10 10 9 9 9 8 8 8 8
14 17 16 19 19 18 17 18 17 17 16 16 16 16 16 15 15 15 15 15 14 14 14 14 14 14 14 13 13 13 12 12 11 11 11 10 10 10 9 9 8 8 8 8
21 21 20 20 19 18 18 18 17 17 17 16 16 16 16 15 15 15 15 15 14 14 14 14 14 14 14 14 13 13 12 12 11 11 11 10 10 10 9 9 8 8 8 8
20 20 20 20 20 19 18 18 17 17 17 16 16 16 15 15 15 15 15 15 14 14 14 14 14 14 14 14 13 13 12 12 11 11 11 11 10 10 10 9 9 8 8 8
21 21 20 20 20 19 18 17 17 17 16 16 16 15 15 15 15 15 15 14 14 14 14 14 14 14 14 14 13 13 13 12 12 11 11 11 10 10 10 10 9 9 8 8
22 21 20 20 20 19 18 17 17 17 16 16 16 15 15 15 15 15 15 14 14 14 14 14 13 13 13 13 13 13 13 12 12 12 11 11 11 10 10 10 9 9 9 8
21 21 20 20 20 19 19 18 18 17 16 16 16 16 15 15 15 15 15 14 14 14 14 14 13 13 13 13 13 13 13 13 12 12 12 11 11 11 10 10 10 9 9 9
22 22 22 21 20 20 19 19 18 17 17 16 16 16 15 15 15 15 15 14 14 14 14 13 13 13 13 13 13 13 13 13 13 12 12 12 11 11 11 10 10 10 10 9
21 21 21 20 20 20 19 19 18 18 17 16 16 16 15 15 15 15 15 14 14 14 14 13 13 13 13 13 13 13 13 13 13 13 12 12 12 11 11 11 11 10 10 10
21 21 21 20 20 19 19 19 18 18 17 16 16 16 16 15 15 15 15 15 15 14 14 13 13 13 13 13 13 13 13 13 13 13 13 13 12 12 12 11 11 11 11 10
21 21 21 20 20 19 19 19 18 18 17 17 16 16 16 16 15 15 15 15 15 14 14 13 13 13 13 13 13 13 13 13 14 13 13 13 13 12 12 12 12 11 11 11
20 20 20 20 19 19 19 18 18 18 17 17 17 16 16 16 16 15 15 15 15 14 14 14 14 13 13 13 13 13 13 13 14 14 13 13 13 13 13 12 12 12 11 11
18 18 19 19 19 18 18 18 18 18 17 17 17 17 16 16 16 16 15 15 15 14 14 14 13 13 13 13 13 13 13 13 13 13 13 13 13 13 13 13 13 12 12 12
16 16 17 17 17 17 17 17 17 17 17 17 17 17 16 16 16 16 15 15 14 14 14 14 14 13 13 13 13 13 13 13 13 13 13 13 13 13 13 13 13 13 12 12
13 14 14 15 15 15 15 16 16 16 16 16 16 16 16 16 16 16 15 15 14 14 14 14 14 13 13 13 13 13 13 13 13 13 13 13 13 13 13 13 13 13 13 13
10 11 11 12 12 13 13 14 14 15 15 15 16 16 16 16 15 15 15 15 14 14 14 14 13 13 13 13 13 13 13 13 13 13 13 13 13 13 13 13 13 13 13 13
9 9 10 10 11 11 11 12 12 13 13 14 14 14 15 15 15 15 15 15 14 14 14 13 13 13 13 13 13 13 13 13 13 13 13 13 13 13 12 12 12 13 13 13
Wind_Speed
4 3 2 1 0 2 3 6 6 5 5 8 7 6 7 7 8 8 9 9 9 8 7 7 7 8 8 8 8 8 8 9 9 8 8 8 9 9 9 10 10 9 9 10
2 1 1 3 4 3 3 5 5 4 6 8 6 4 5 6 7 7 8 8 9 9 8 8 7 6 6 7 7 7 8 8 8 8 8 8 8 8 9 10 9 10 11 10
1 2 5 7 8 9 6 6 7 7 7 5 4 5 5 5 6 7 7 7 8 8 7 7 6 4 5 5 5 6 7 7 7 7 7 7 7 7 8 8 8 9 10 10
2 2 5 7 4 8 7 7 9 7 6 6 7 5 5 5 5 7 7 7 7 8 8 7 5 4 3 4 5 6 6 6 7 7 7 7 7 7 6 6 6 7 8 9
3 2 7 7 5 7 7 7 9 10 8 6 4 1 5 6 5 6 6 6 6 6 6 6 6 4 3 4 5 5 5 6 6 6 7 7 7 6 5 5 6 6 6 8
4 2 5 7 4 6 5 6 8 11 9 7 7 1 5 5 4 6 6 5 5 6 5 6 6 4 2 4 4 4 3 3 5 6 7 7 6 5 5 5 5 6 7 7
5 5 8 6 6 9 4 7 5 11 10 10 9 8 5 4 4 4 5 5 5 6 6 6 6 4 3 4 4 3 1 3 5 6 6 6 6 5 5 6 6 7 7 6
5 5 8 6 10 10 11 3 7 10 10 10 10 7 6 5 5 4 4 5 5 6 6 6 6 4 4 5 4 1 4 5 5 6 5 5 6 6 6 6 7 7 7 7
9 9 5 9 9 7 7 7 8 9 9 10 8 6 6 4 3 2 3 4 4 4 6 6 6 5 5 6 3 3 5 5 5 6 6 5 6 6 6 6 6 6 6 7
6 9 7 10 7 5 8 8 8 10 9 10 8 8 6 4 2 2 2 3 3 4 5 6 6 6 5 5 2 4 5 4 4 5 5 5 5 5 5 5 5 6 6 7
7 8 5 7 11 10 8 7 8 8 9 10 9 7 7 5 4 2 2 2 2 3 4 5 6 6 6 5 2 4 4 4 4 3 3 3 3 3 3 2 2 2 3 4
8 8 8 7 9 12 11 10 11 10 8 7 8 8 7 6 4 3 2 1 2 3 3 5 5 6 6 5 1 4 3 3 2 2 2 1 1 2 2 1 3 4 5 4
6 6 7 4 5 11 12 12 11 11 11 8 7 8 7 5 4 3 3 2 2 3 3 4 5 6 6 5 1 3 3 3 3 2 2 1 0 2 3 4 4 6 8 8
5 6 4 6 7 10 11 11 11 10 9 9 8 7 6 5 4 5 5 4 3 2 3 3 4 5 6 5 1 2 3 4 4 3 2 2 1 1 1 2 3 4 5 7
10 9 7 5 6 8 9 9 9 9 9 8 7 7 7 7 7 7 5 3 2 2 3 2 3 5 5 4 1 2 3 2 3 2 2 2 2 1 0 1 1 2 3 4
8 8 6 6 8 10 10 10 11 11 10 9 9 9 9 8 7 6 5 4 4 4 4 3 4 4 5 4 1 1 2 4 4 3 2 2 2 2 1 1 1 2 2 2
9 10 9 8 9 11 12 12 13 13 11 11 11 10 8 7 5 6 6 5 5 5 5 4 4 4 4 2 1 1 2 2 4 3 3 4 3 3 3 3 3 3 3 2
11 12 11 9 9 11 12 11 11 12 11 12 10 9 9 9 9 10 8 5 4 4 5 6 4 3 2 1 1 0 1 2 3 4 4 4 4 4 4 4 4 4 3 2
12 11 11 11 10 11 11 11 11 11 11 10 10 11 11 11 10 8 6 6 6 7 7 7 6 4 3 3 1 1 1 2 3 4 4 5 5 4 4 4 5 5 4 3
11 10 10 10 9 9 10 10 10 10 10 10 10 10 10 10 9 8 7 7 8 7 6 5 5 5 5 4 2 2 2 3 3 3 4 4 5 5 5 5 5 5 5 5
9 9 10 9 9 9 9 10 10 10 10 10 11 11 11 10 9 8 7 7 8 8 7 8 6 5 5 5 4 2 3 3 4 4 4 5 5 5 6 6 6 6 5 5
2 5 7 7 8 7 7 7 8 9 9 10 11 10 9 9 9 8 8 8 7 8 7 6 6 7 8 6 4 3 4 4 4 4 4 5 5 6 6 6 6 6 6 6
5 3 2 4 5 4 4 5 7 8 9 10 10 11 10 10 8 8 8 8 7 9 8 7 9 12 11 6 5 5 5 5 5 5 5 5 5 6 6 7 7 6 6 6
9 8 7 5 5 5 3 0 3 4 6 6 8 9 8 7 6 8 8 5 10 11 8 10 14 14 11 6 6 5 5 5 5 5 5 5 5 6 6 6 7 6 7 7
9 10 10 10 9 6 5 4 3 2 1 2 3 5 6 6 7 6 6 8 10 10 7 10 14 14 9 6 7 6 6 6 6 5 5 5 5 5 6 6 6 6 6 7
8 7 6 6 6 5 5 5 5 4 3 3 3 2 2 4 5 5 4 7 9 9 8 6 7 8 7 7 7 7 7 7 7 6 6 6 6 6 6 6 7 7 7 7
6 5 5 5 5 5 5 5 5 5 5 4 4 4 3 2 3 4 6 5 6 6 7 6 6 6 7 7 7 7 7 6 6 6 6 6 6 6 6 7 6 6 6 6
Wind_Direction
78 87 98 86 175 146 144 168 173 225 248 266 274 278 294 307 322 339 346 346 348 345 342 346 352 356 358 360 3 10 22 25 21 20 25 30 32 32 34 37 37 30 32 27
49 51 13 294 242 206 179 180 207 242 265 253 252 263 289 308 326 335 335 338 341 344 344 343 344 346 351 355 356 9 22 18 14 20 25 27 29 32 36 33 29 32 31 28
264 329 357 284 225 199 206 199 183 208 237 248 240 259 269 286 306 314 319 325 332 332 328 325 325 331 341 342 355 15 20 16 15 20 26 24 32 39 36 29 29 32 28 26
114 61 277 248 211 177 192 221 203 217 237 225 226 245 264 259 271 296 311 323 325 324 323 320 318 324 333 351 6 16 20 20 17 21 25 25 37 39 34 30 32 30 29 25
125 225 280 283 190 170 183 250 211 208 230 230 201 8 305 262 252 268 288 298 299 304 303 309 316 317 335 352 359 11 17 22 19 22 26 30 34 31 28 38 38 33 27 25
132 217 257 257 191 150 110 272 221 189 201 180 135 153 267 265 270 286 302 308 314 320 324 333 332 332 346 342 347 353 9 32 35 36 37 34 32 33 34 44 38 30 28 20
166 231 263 245 148 122 149 246 203 176 180 168 179 204 231 280 285 296 312 324 338 344 346 337 336 357 359 341 329 316 76 73 56 46 49 44 43 40 40 39 36 28 21 11
164 207 258 188 149 181 211 214 168 172 174 179 203 224 243 262 273 307 332 342 350 351 342 339 353 13 1 341 323 3 105 85 67 51 47 47 50 43 37 35 35 24 16 10
191 215 236 188 196 204 172 175 180 175 179 180 192 215 221 228 245 300 334 342 348 346 338 345 358 10 354 330 339 104 107 94 82 69 54 47 50 45 37 33 33 24 18 10
247 260 237 225 235 212 187 186 181 174 169 169 182 197 202 207 225 277 315 334 346 352 350 343 345 354 341 333 18 116 118 111 99 85 66 51 48 47 47 35 29 24 18 6
254 268 267 243 212 200 192 180 162 166 172 177 179 188 192 201 218 237 273 312 342 342 328 326 335 344 345 352 63 114 124 124 113 100 90 63 49 42 43 22 13 17 356 347
221 220 194 233 208 180 172 179 175 169 175 182 181 186 188 200 213 220 237 266 319 328 324 326 335 338 340 347 64 138 138 145 144 135 116 84 30 360 338 319 2 27 24 21
203 195 191 246 184 176 180 182 178 177 176 179 186 185 183 194 208 213 224 234 261 292 305 317 328 332 335 339 350 162 164 166 163 165 173 193 330 355 349 348 13 32 28 33
194 144 181 207 192 187 183 181 176 179 180 176 174 177 178 187 199 212 228 234 237 266 294 310 320 324 328 333 347 156 161 171 172 187 200 214 237 276 335 359 355 345 359 23
205 196 204 197 175 173 171 161 166 179 180 179 176 178 182 190 208 222 227 224 218 246 278 298 308 313 327 334 325 175 172 182 183 187 195 202 203 194 179 4 357 342 347 0
191 192 190 177 181 176 169 174 180 189 186 185 187 195 198 201 210 222 224 207 205 235 256 266 278 295 319 329 315 205 208 212 187 183 193 193 193 192 201 240 290 316 328 328
158 185 195 202 198 191 191 190 190 189 186 189 198 200 194 192 207 228 233 221 217 232 242 236 250 289 314 331 314 256 230 231 200 185 204 208 208 211 211 217 240 261 271 272
200 196 185 185 188 193 198 195 190 186 188 197 194 184 184 191 209 223 223 207 214 248 249 233 236 265 281 323 339 297 240 231 212 210 214 214 214 213 210 219 233 244 257 276
209 204 196 195 190 185 190 192 194 194 191 183 181 189 197 204 212 215 193 185 207 234 248 231 224 221 233 261 285 295 286 262 241 227 218 222 219 216 217 223 231 233 232 229
207 204 197 196 189 185 191 189 185 187 188 181 184 191 201 212 209 199 188 207 219 216 218 210 206 213 225 238 248 274 289 278 258 244 226 218 220 225 225 228 231 231 226 222
201 195 190 189 192 197 196 185 180 189 187 180 185 196 205 211 198 183 185 226 242 217 213 216 206 212 216 216 223 243 273 276 266 254 242 232 228 228 229 231 232 230 226 222
164 181 185 184 186 198 199 187 188 190 183 187 196 198 200 204 195 195 210 221 231 194 193 206 208 215 212 207 202 225 252 263 262 257 251 241 233 232 233 230 231 231 226 221
36 58 117 157 176 183 170 182 193 191 191 195 198 199 202 205 189 188 225 229 211 202 195 208 215 219 219 207 202 218 237 249 253 253 252 248 241 236 235 234 229 225 222 218
36 40 46 61 80 85 83 5 206 201 203 208 209 206 200 202 211 219 221 209 188 197 203 216 219 221 215 195 201 214 227 238 244 248 251 253 251 246 241 237 232 225 220 217
35 41 44 49 51 40 21 19 45 53 157 227 237 221 208 200 211 222 210 213 209 204 209 221 225 221 208 197 203 212 220 228 232 235 241 250 254 253 249 241 234 227 219 215
29 37 43 52 51 36 29 37 40 27 24 7 337 296 245 230 228 229 216 214 214 210 209 214 216 215 203 205 211 216 221 232 243 241 237 245 253 255 253 248 242 231 223 217
19 27 30 32 29 27 30 36 34 19 8 2 339 335 324 281 241 231 226 222 216 215 216 214 209 207 209 212 218 221 222 226 230 234 237 240 243 247 250 251 245 237 225 216
Height
1584 1583 1584 1585 1585 1587 1590 1594 1598 1592 1590 1585 1581 1579 1578 1576 1574 1571 1568 1565 1562 1559 1555 1552 1549 1545 1542 1539 1536 1533 1530 1526 1524 1522 1520 1518 1516 1514 1512 1510 1508 1507 1506 1505
1585 1583 1584 1585 1583 1584 1585 1588 1589 1588 1587 1578 1578 1577 1577 1576 1574 1572 1569 1567 1564 1561 1558 1554 1551 1548 1545 1542 1539 1536 1533 1530 1528 1525 1523 1521 1519 1517 1515 1513 1512 1510 1508 1507
1592 1586 1587 1588 1579 1580 1580 1580 1583 1585 1581 1576 1576 1576 1576 1575 1574 1572 1570 1568 1565 1562 1559 1556 1553 1551 1548 1545 1542 1539 1536 1533 1531 1528 1525 1523 1522 1520 1518 1517 1515 1513 1511 1510
1593 1591 1591 1577 1568 1570 1574 1574 1575 1574 1574 1574 1574 1575 1574 1574 1573 1572 1570 1568 1566 1563 1560 1557 1555 1552 1550 1547 1544 1542 1539 1536 1533 1530 1528 1526 1524 1523 1521 1520 1518 1516 1514 1512
1595 1594 1587 1571 1566 1568 1572 1571 1567 1569 1570 1571 1573 1574 1573 1573 1572 1572 1570 1569 1566 1564 1561 1558 1555 1553 1551 1548 1546 1544 1541 1538 1536 1533 1530 1529 1527 1526 1524 1522 1520 1518 1516 1514
1592 1588 1584 1567 1560 1562 1568 1570 1560 1562 1566 1569 1571 1576 1573 1571 1571 1571 1570 1568 1566 1564 1561 1558 1556 1553 1551 1549 1547 1545 1543 1540 1538 1535 1533 1531 1530 1528 1526 1525 1522 1520 1518 1515
1589 1587 1576 1559 1558 1563 1576 1566 1555 1558 1562 1565 1568 1570 1570 1570 1570 1570 1569 1568 1566 1564 1561 1559 1556 1554 1551 1549 1547 1546 1544 1542 1540 1538 1535 1533 1532 1530 1528 1526 1524 1522 1519 1517
1587 1586 1575 1555 1557 1560 1557 1552 1552 1556 1559 1562 1565 1567 1568 1569 1569 1569 1568 1567 1566 1564 1561 1559 1556 1554 1552 1549 1548 1546 1545 1543 1542 1540 1538 1536 1534 1532 1530 1528 1526 1524 1522 1519
1567 1561 1548 1547 1546 1547 1549 1550 1551 1554 1558 1561 1563 1565 1567 1567 1568 1568 1568 1567 1565 1563 1561 1559 1557 1554 1552 1550 1549 1547 1546 1545 1543 1541 1540 1538 1537 1535 1532 1530 1528 1526 1523 1521
1556 1546 1542 1543 1543 1545 1547 1549 1550 1553 1556 1559 1561 1563 1565 1566 1567 1567 1567 1566 1565 1563 1561 1560 1557 1555 1553 1551 1549 1548 1547 1546 1544 1543 1542 1540 1539 1537 1535 1533 1530 1528 1526 1523
1549 1539 1537 1536 1537 1541 1544 1547 1550 1553 1555 1558 1560 1562 1563 1564 1565 1565 1565 1565 1564 1562 1561 1560 1558 1555 1553 1552 1550 1549 1548 1547 1546 1545 1543 1542 1541 1539 1537 1535 1533 1531 1529 1526
1540 1531 1531 1531 1531 1536 1540 1544 1547 1550 1553 1556 1558 1560 1561 1563 1563 1564 1564 1564 1563 1562 1561 1559 1558 1556 1554 1552 1551 1550 1549 1548 1547 1546 1545 1544 1542 1541 1539 1537 1535 1533 1531 1529
1527 1527 1528 1529 1530 1532 1536 1541 1545 1548 1551 1553 1556 1558 1560 1561 1562 1562 1562 1562 1562 1561 1560 1559 1557 1556 1554 1553 1552 1551 1549 1548 1548 1547 1546 1545 1544 1542 1541 1539 1537 1535 1533 1531
1524 1526 1526 1527 1528 1530 1533 1538 1542 1545 1548 1551 1553 1555 1557 1559 1560 1560 1560 1560 1560 1559 1558 1557 1556 1555 1554 1553 1552 1551 1550 1549 1548 1548 1547 1546 1545 1544 1542 1540 1539 1537 1535 1533
1519 1522 1524 1525 1526 1528 1531 1534 1538 1541 1544 1547 1550 1552 1554 1556 1557 1558 1558 1558 1558 1557 1557 1556 1555 1554 1553 1552 1552 1551 1550 1550 1549 1548 1548 1547 1546 1545 1544 1542 1540 1539 1537 1535
1515 1518 1520 1522 1523 1524 1526 1529 1532 1535 1539 1543 1546 1548 1551 1553 1554 1555 1555 1555 1555 1555 1554 1554 1553 1552 1552 1551 1551 1550 1550 1550 1549 1549 1548 1548 1547 1546 1545 1543 1542 1540 1539 1537
1511 1512 1515 1517 1518 1519 1521 1523 1527 1530 1535 1538 1541 1544 1547 1549 1550 1551 1552 1552 1552 1552 1551 1551 1551 1550 1550 1549 1549 1549 1549 1549 1549 1548 1548 1547 1547 1546 1545 1544 1543 1542 1540 1538
1506 1508 1511 1512 1514 1515 1517 1520 1523 1526 1529 1533 1537 1540 1542 1544 1546 1547 1548 1548 1548 1548 1548 1548 1548 1548 1547 1547 1547 1547 1547 1547 1547 1547 1547 1546 1546 1545 1545 1544 1543 1542 1541 1539
1498 1502 1505 1508 1510 1511 1513 1515 1518 1522 1525 1529 1532 1535 1537 1539 1541 1543 1544 1544 1544 1544 1545 1544 1544 1544 1544 1544 1544 1545 1545 1545 1545 1545 1545 1545 1545 1544 1544 1543 1543 1542 1541 1540
1491 1495 1499 1502 1505 1507 1509 1511 1514 1517 1521 1524 1527 1529 1532 1534 1536 1538 1539 1540 1540 1540 1540 1540 1540 1540 1541 1541 1541 1541 1542 1542 1542 1542 1543 1543 1543 1543 1542 1542 1541 1541 1540 1539
1486 1490 1493 1497 1500 1503 1505 1508 1510 1513 1516 1519 1521 1523 1526 1529 1531 1533 1534 1535 1536 1536 1536 1536 1536 1536 1537 1537 1537 1538 1538 1538 1538 1539 1539 1540 1540 1540 1540 1540 1540 1539 1539 1538
1483 1485 1489 1492 1495 1498 1501 1503 1506 1509 1511 1514 1516 1519 1521 1523 1525 1527 1528 1530 1531 1531 1531 1531 1532 1533 1533 1533 1533 1534 1534 1534 1534 1535 1535 1536 1536 1537 1537 1537 1537 1537 1536 1536
1481 1483 1485 1488 1491 1494 1497 1499 1501 1504 1506 1509 1511 1514 1516 1518 1520 1522 1523 1525 1526 1526 1526 1527 1528 1528 1529 1529 1529 1530 1530 1530 1530 1530 1531 1531 1532 1532 1533 1533 1533 1533 1533 1533
1480 1481 1483 1486 1488 1491 1493 1495 1497 1499 1502 1504 1506 1509 1511 1512 1514 1516 1518 1520 1520 1521 1521 1522 1523 1523 1524 1525 1525 1526 1526 1526 1526 1526 1526 1527 1527 1528 1528 1528 1529 1529 1529 1529
1481 1481 1483 1484 1486 1488 1490 1491 1493 1495 1497 1499 1501 1503 1505 1507 1509 1510 1512 1513 1515 1515 1516 1517 1517 1518 1519 1520 1520 1521 1521 1521 1521 1522 1522 1522 1522 1522 1523 1523 1524 1524 1525 1525
1483 1483 1483 1484 1485 1486 1487 1489 1490 1491 1493 1495 1497 1498 1500 1501 1503 1504 1506 1507 1509 1510 1511 1511 1512 1513 1513 1514 1515 1516 1516 1516 1516 1516 1517 1517 1517 1517 1517 1517 1518 1519 1520 1520
1484 1484 1484 1485 1485 1486 1487 1487 1488 1489 1490 1491 1493 1494 1495 1496 1497 1498 1500 1501 1502 1504 1505 1506 1506 1507 1507 1508 1509 1510 1510 1511 1511 1511 1511 1511 1511 1511 1511 1511 1512 1513 1514 1515